Location: Unspecified
(41.1637°N, 24.2901°E)
Time: 17:22:19
(UTC+01:00)

ISS - Pass Details

Date: 19 January 2020
Orbit: 415 x 421 km, 51.6° (Epoch: 18 January)

Event Time Altitude Azimuth Distance (km) Brightness Sun altitude
Rises 17:34:26 0° 194° (SSW) 2,349 0.5 -13.4°
Reaches altitude 10° 17:37:02 10° 173° (S) 1,489 -0.9 -13.9°
Maximum altitude 17:39:15 17° 132° (SE) 1,148 -1.9 -14.3°
Enters shadow 17:39:30 17° 126° (SE) 1,154 -1.9 -14.3°
